Regional Weather Roundup
Issued by NWS Grand Forks, ND

Home | Current Version | Previous Version | Text Only | Print | Product List | Glossary Off
Versions: 1 2 3 4 5 6 7 8 9 10 11 12 13 14 15 16 17 18 19 20 21 22 23 24 25 26 27 28 29 30 31 32 33 34 35 36 37 38 39 40 41 42 43 44 45 46 47 48 49 50

000
ASUS43 KFGF 262131
RWRFGF
PRAIRIE TO PINES  WEATHER ROUNDUP
NATIONAL WEATHER SERVICE EASTERN NORTH DAKOTA/GRAND FORKS ND
400 PM CDT THU MAR 26 2015

 **SATELLITE DATA USED TO AUGMENT SKY COVER AT AUTOMATED STATIONS**
 *****  WEATHER ACROSS EASTERN NORTH DAKOTA  *****

CITY           SKY/WX    TMP DP  RH WIND       PRES   REMARKS
GRAND FORKS    CLOUDY    33  18  53 N21       30.28S WCI  21
GRAND FRKS AFB PTSUNNY   30  14  51 N18       30.28S WCI  18
GRAND FRKS NWS   N/A     30 N/A N/A N20         N/A  WCI  18
DEVILS LAKE    CLOUDY    30  16  55 NE8       30.25S WCI  23
FARGO          MOSUNNY   36   9  32 N18G26    30.23F
WAHPETON ARPT  CLEAR     34   7  32 N18G25    30.21S WCI  23
$$

 ***** WEATHER ACROSS CENTRAL AND WESTERN NORTH DAKOTA  *****

CITY           SKY/WX    TMP DP  RH WIND       PRES   REMARKS
BISMARCK       PTSUNNY   37  21  52 E7        30.22F
MINOT          MOSUNNY   38  19  46 MISG      30.21F
JAMESTOWN      MOSUNNY   37  11  34 N16       30.22S
MINOT AFB      PTSUNNY   38  25  59 VRB1      30.21F
GARRISON         N/A     38  23  55 VRB7      30.20F
WILLISTON      CLOUDY    45  27  49 S7        30.17F
DICKINSON      CLOUDY    37  30  75 E5        30.15F
HETTINGER      CLOUDY    37  30  75 SE6       30.17S
$$

 *****  OTHER AIRPORT OBSERVATIONS IN OUR AREA  *****

CITY           SKY/WX    TMP DP  RH WIND       PRES   REMARKS
WALHALLA         N/A     30  23  74 N13       30.30F WCI  20
GRAFTON AIRPOR NOT AVBL
VALLEY CITY AR MIX PCPN  32  12  43 N14G28    30.23S WCI  22
CANDO          CLOUDY    32  14  47 CALM      30.26F
CAVALIER APRT  CLOUDY    28  19  69 N13       30.30S WCI  18
GWINNER        PTCLDY    36  14  41 N18G28      N/A
ROLLA          MOCLDY    30  14  51 NE7       30.24S WCI  23
 ***** THE ABOVE OBSERVATIONS ARE NON NWS ARE NOT QUALITY
       CONTROLLED AND MAY MIS-REPORT RAIN FOR SNOW...
$$

  *****  WEATHER ACROSS NORTHERN MINNESOTA  *****

CITY           SKY/WX    TMP DP  RH WIND       PRES   REMARKS
FLAG ISLAND    SUNNY     23   1  39 N14       30.23S WCI  11
WARROAD        SUNNY     25   9  50 E8        30.24S WCI  16
ROSEAU         SUNNY     28   9  43 NW10G16   30.24S WCI  19
HALLOCK        MOSUNNY   30  16  55 N16G22    30.28F WCI  19
THF RVR FALLS  MOSUNNY   28  12  50 N14       30.24F WCI  17
BAUDETTE       SUNNY     24   5  44 NW16      30.21S WCI  11
WASKISH        SUNNY     28   9  43 NW12      30.20S WCI  18
CROOKSTON      MOSUNNY   30  16  55 N14G22    30.27S WCI  20
$$
  *****  WEATHER ACROSS CENTRAL AND WEST MINNESOTA  *****

CITY           SKY/WX    TMP DP  RH WIND       PRES   REMARKS
FOSSTON        MOSUNNY   32  12  43 N17G24    30.22S WCI  21
BEMIDJI        SUNNY     28   0  29 N10G18    30.17S WCI  19
PARK RAPIDS    SUNNY     31   3  30 N15       30.14S WCI  20
ELBOW LAKE     FAIR      32  12  44 N15       30.17S WCI  21
WADENA         SUNNY     30   9  40 N14       30.14S WCI  20
DETROIT LAKES  MOSUNNY   30  14  51 N21G26    30.19S WCI  17
MOORHEAD       MOSUNNY   36   3  25 N25       30.23F
FERGUS FALLS   SUNNY     30   7  37 N14G24    30.21S WCI  20
MORRIS MN      PTSUNNY   34  18  51 N17       30.16F WCI  23
STAPLES        SUNNY     32   5  32 N15G21    30.13S WCI  22
$$
  *****  WEATHER ELSEWHERE ACROSS MINNESOTA  *****

CITY           SKY/WX    TMP DP  RH WIND       PRES   REMARKS
DULUTH         MOSUNNY   29   4  34 N15G22    30.08S WCI  18
INTRNTL FALLS  SUNNY     26   3  37 N9        30.17S WCI  17
ELY            SUNNY     25   0  33 N9G18     30.10R WCI  15
CLOQUET        SUNNY     30   0  27 N16G23    30.09S WCI  19
WHEATON        SUNNY     34  12  40 N17G26    30.21S WCI  23
BRAINERD       SUNNY     31   7  36 N13G24    30.13F WCI  21
HIBBING        SUNNY     29   2  31 N15G23    30.11S WCI  18
ALEXANDRIA     CLOUDY    30  15  53 NW12      30.15S WCI  20
SAINT CLOUD    CLOUDY    32  13  45 N12       30.12F WCI  23
MINNEAPOLIS    CLOUDY    35  16  45 NW20G25   30.10S WCI  24
$$

  *****  WEATHER ACROSS SOUTH DAKOTA  *****

CITY           SKY/WX    TMP DP  RH WIND       PRES   REMARKS
SIOUX FALLS    CLOUDY    39  22  50 N12       30.14S
BROOKINGS      NOT AVBL
WATERTOWN      PTSUNNY   34  17  50 N17       30.15F WCI  23
HURON          CLOUDY    40  21  46 N14       30.18S
SISSETON         N/A     34  17  50 N21G28    30.20R WCI  22
ABERDEEN       MOSUNNY   38  16  40 NE15      30.21F
MITCHELL       CLOUDY    39  28  64 NW8       30.18F
PIERRE         CLOUDY    34  31  88 CALM      30.18S
MOBRIDGE       CLOUDY    41  24  51 VRB3      30.17S
RAPID CITY     PTSUNNY   50  29  44 N15G22    30.11S
$$

  *****  SOME WEATHER IN NEARBY STATES *****

CITY           SKY/WX    TMP DP  RH WIND       PRES   REMARKS
GLASGOW MT     PTSUNNY   50  32  50 SE14      30.08F
GREAT FALLS MT FAIR      65  35  33 W29G40    30.06F
CHEYENNE WY    MOSUNNY   53  22  29 NW28G41   30.13F
SCOTTSBLUFF NE CLOUDY    53  31  42 NW25G33   30.11F
OMAHA NE       CLOUDY    48  23  37 N12       30.09F
DES MOINES IA  CLOUDY    45  22  40 N16G22    30.09F
DAVENPORT IA   SUNNY     44  23  43 NW21G30   30.02S
CHICAGO IL     CLOUDY    40  24  53 NW17      29.96R
EAU CLAIRE WI  CLOUDY    33  13  43 NW13      30.06S WCI  24
LA CROSSE WI   CLOUDY    38  19  46 NW12      30.05S
$$

  *****  SOME NATIONAL WEATHER *****

CITY           SKY/WX    TMP DP  RH WIND       PRES   REMARKS
LA GUARDIA NY  CLOUDY    56  51  84 S8        29.65F HAZE
RALEIGH NC     CLOUDY    73  56  54 SW18G25   29.78S
ATLANTA GA     CLOUDY    72  50  45 SW9       29.82F
NEW ORLEANS LA CLOUDY    64  57  78 S8        29.82F
OKLAHOMA CITY  MOSUNNY   61  30  31 N18       30.15F
ALBUQUERQUE NM MOSUNNY   59  20  22 NE3       30.27F
SALT LAKE CITY FAIR      59  26  28 NW6       30.38S
LOS ANGELES CA FAIR      78  50  37 W14       30.04F
BOISE ID       FAIR      60  38  43 N7        30.35F
SEATTLE WA     FAIR      66  49  54 W5        30.24F
$$

*** WEATHER ACROSS MANITOBA...SASKATCHEWAN AND ONTARIO ***
                ***ONTARIO***

CITY           SKY/WX    TMP DP  RH WIND       PRES   REMARKS
GERALDTON      MOSUNNY   18  -2  41 N12G18    30.02F WCI   5
THUNDER BAY    MOSUNNY   25   5  42 NW13G18   30.10S WCI  13
SIOUX LOOKOUT  MOSUNNY   19   3  49 N14       30.17S WCI   6
TORONTO        CLOUDY    41  30  65 W13       29.76S
BIG TROUT LK   SUNNY     14  -6  41 NW10G18   30.23R WCI   1
PICKLE LAKE    MOSUNNY   16  -4  41 NW9G20    30.14R WCI   4
DRYDEN         SUNNY     21   0  39 N10G18    30.17F WCI  10
KENORA         SUNNY     23  -2  33 N12G18    30.21F WCI  12
$$
                *** MANITOBA***

CITY           SKY/WX    TMP DP  RH WIND       PRES   REMARKS
BRANDON        MOSUNNY   30  19  64 VRB2      30.28F
DAUPHIN        SUNNY     27  19  74 NE9       30.30F WCI  17
ISLAND LAKE    SUNNY     21  -2  35 NW10      30.30F WCI  10
PILOT MOUND      N/A     30  18  59 N7          N/A  WCI  23
THE PAS        MOSUNNY   28  16  59 SE7       30.28F WCI  21
THOMPSON       SUNNY     25 -11  20 W3        30.28F
WINNIPEG       MOSUNNY   27   9  46 N12       30.33F WCI  16
LYNN LAKE      SUNNY     25   0  33 S6        30.21F WCI  18
CHURCHILL      SUNNY     12  -2  52 W7          N/A  WCI   2
GILLAM         SUNNY     19   1  45 W8        30.31F WCI   9
$$
                ***SASKATCHEWAN***

CITY           SKY/WX    TMP DP  RH WIND       PRES   REMARKS
ESTEVAN        PTSUNNY   37  25  60 E9        30.20S
KINDERSLEY     CLOUDY    48  37  66 S13       30.03F
LLOYDMINSTER   CLOUDY    37  27  65 SE9       30.01F
PRINCE ALBERT  PTSUNNY   37  23  56 SE8       30.17F
REGINA         PTSUNNY   36  28  75 SE17      30.17F
YORKTON        SUNNY     34  19  55 SE8       30.23F
N. BATTLEFORD  CLOUDY    37  30  75 SE16      30.09F
LA RONGE       PTSUNNY   36  21  55 SE10      30.14
SASKATOON      CLOUDY    41  30  65 SE12G18   30.13F
SWIFT CURRENT  CLOUDY    50  30  46 S12       30.03F
$$
NOTE: THESE ARE AUTOMATED STATIONS WITH LIMITED QUALITY CONTROL
      "FAIR" INDICATES FEW OR NO CLOUDS BELOW 12,000 FEET WITH NO
      SIGNIFICANT WEATHER AND/OR OBSTRUCTIONS TO VISIBILITY.
      SKY/WX - SKY CONDITION AND SIGNIFICANT WEATHER.
      TMP - AIR TEMPERATURE.    DP   - DEWPOINT TEMPERATURE.
      RH  - RELATIVE HUMIDITY.  PRES - PRESSURE.
      HX  - HEAT INDEX.         WCI  - WIND CHILL INDEX.
$


USA.gov is the U.S. government's official web portal to all federal, state and local government web resources and services.